Location: ShareBrained
(45.5589°N, 122.6491°W)
Time: 02:52:53
(UTC-08:00)

NOAA 19 - Pass Details

Date: 25 September 2023
Orbit: 839 x 860 km, 99.1° (Epoch: 08 December)

Event Time Altitude Azimuth Distance (km) Brightness Sun altitude
Exits shadow 19:37:33 - 96° (E) 2,616 7.0 -7.0°
Reaches altitude 10° 19:38:09 10° 91° (E) 2,476 6.9 -7.1°
Maximum altitude 19:41:18 16° 55° (NE) 2,095 6.8 -7.6°
Drops below altitude 10° 19:44:29 10° 20° (NNE) 2,492 7.5 -8.2°
Sets 19:47:47 0° 360° (N) 3,437 8.5 -8.8°
